Regional Weather Roundup
Issued by NWS Cleveland, OH

Home | Current Version | Previous Version | Graphics & Text | Print | Product List | Glossary On
Versions: 1 2 3 4 5 6 7 8 9 10 11 12 13 14 15 16 17 18 19 20 21 22 23 24 25 26 27 28 29 30 31 32 33 34 35 36 37 38 39 40 41 42 43 44 45 46 47 48 49 50
000
ASUS41 KCLE 230302
RWRCLE
OHIO REGIONAL WEATHER ROUNDUP
NATIONAL WEATHER SERVICE CLEVELAND, OH
1100 PM EDT TUE JUL 22 2014

NOTE: "FAIR" INDICATES FEW OR NO CLOUDS BELOW 12,000 FEET WITH NO
SIGNIFICANT WEATHER AND/OR OBSTRUCTIONS TO VISIBILITY.

OHZ001>008-015>018-024>027-034-035-043-044-230400-
   NORTHWEST OHIO

CITY           SKY/WX    TMP DP  RH WIND       PRES   REMARKS
DEFIANCE       CLEAR     78  67  68 CALM      29.98S
FINDLAY        CLEAR     74  67  78 S8        29.98F
TOLEDO EXPRESS PTCLDY    79  66  64 SW6       29.97S
TOLEDO EXEC    CLEAR     79  65  62 SW7       29.97F
LIMA           CLEAR     77  67  71 S8        30.01F
$$

OHZ009>014-019>023-028>033-038-089-230400-
   NORTHEAST OHIO

CITY           SKY/WX    TMP DP  RH WIND       PRES   REMARKS
CLE-HOPKINS    PTCLDY    79  66  64 S9        30.01S
CLE-LAKEFRONT  CLEAR     83  66  56 S7        29.97S
CUY CO. ARPT   PTCLDY    81  72  74 S7        30.00S
LORAIN-ELYRIA  CLEAR     78  68  71 SW7       30.00S
ASHTABULA      CLEAR     74  68  81 S5        30.00F
AKRON-CANTON   PTCLDY    78  69  73 SW7       30.03S
WOOSTER        CLEAR     75  68  78 SW5       30.03F
MANSFIELD      CLEAR     74  68  81 SW6       30.04S
YOUNGSTOWN     CLEAR     76  68  76 S6        30.02F
$$

OHZ042-051>053-060>062-070>072-077>081-230400-
  SOUTHWEST OHIO

CITY           SKY/WX    TMP DP  RH WIND       PRES   REMARKS
CINC-COVINGTON CLEAR     74  68  81 CALM      30.06R
CINC-LUNKEN    CLEAR     73  69  87 CALM      30.04R
HAMILTON       CLEAR     72  69  90 CALM      30.05R
DAYTON         CLEAR     77  67  71 SW7       30.05F
WRIGHT-PAT AFB CLEAR     74  68  82 S3        30.04S
DAYTON GENERAL CLEAR     77  67  71 W3        30.05R
WILMINGTON     CLEAR     76  68  76 CALM      30.06R
$$

OHZ036-037-039>041-045>050-054>059-063>069-073>076-082>088-230400-
  CENTRAL AND SOUTHEAST OHIO

CITY           SKY/WX    TMP DP  RH WIND       PRES   REMARKS
COLUMBUS       PTCLDY    82  70  66 S3        30.02S
OSU AIRPORT    CLEAR     79  69  71 SW5       30.03S
BOLTON FIELD   CLEAR     75  72  90 SW5       30.04S
RICKENBACK AFB CLEAR     77  68  74 S5        30.03S
NEWARK         CLEAR     73  70  90 CALM      30.03S FOG
MARION         CLEAR     74  67  78 SW5       30.03R
LANCASTER      CLEAR     72  69  90 CALM      30.04S
ZANESVILLE     CLEAR     75  71  87 CALM      30.04S
NEW PHILLY     NOT AVBL
$$



USA.gov is the U.S. government's official web portal to all federal, state and local government web resources and services.